Flag for Germany Weather past 2 weeks in Halle, Saxony-Anhalt, Germany

Now
37 °F

Partly cloudy.


Feels Like: 27 °F
Forecast: 38 / 44 °F
Wind: 21 mph from Southwest

Location: Leipzig-Schkeuditz

Current Time: Dec 20, 2014 at 7:57:00 PM

Latest Report: Dec 20, 2014 at 7:20 PM


Visibility: N/A

Pressure: 29.92 "Hg

Humidity: 93%

Dew point: 36 °F

Location of HalleLocation

Historic Weather in Halle — Graph

°F

Halle temperature yesterday

Maximum temperature yesterday: 54 °F (at 12:20 AM)
Minimum temperature yesterday: 41 °F (at 10:20 PM)
Average temperature yesterday: 50 °F

Past Weeks' High & Low Weather Summary

 TemperatureHumidityPressure
High54 °F (Dec 18, 9:50 PM)100% (Dec 5, 6:20 PM)30.36 "Hg (Dec 5, 6:20 PM)
Low27 °F (Dec 9, 1:50 AM)66% (Dec 12, 1:20 PM)29.45 "Hg (Dec 12, 7:20 PM)
Average40 °F89%29.94 "Hg
* Reported Dec 5 6:20 PM — Dec 20 6:20 PM, Halle, Weather by CustomWeather, © 2014

Note: Actual official high and low records may vary slightly from our data, if they occured in-between our weather recording intervals... More about our weather records

Advertising

Halle weather history for previous 24 hours

 ConditionsComfort  
Time TempWeatherWind HumidityBarometerVisibility
6:20 PM
Dec 20
37 °FSprinkles. Partly cloudy.15 mph100%29.92 "HgN/A
5:50 PM39 °FSprinkles. Passing clouds.20 mph100%29.92 "HgN/A
5:20 PM41 °FSprinkles. Passing clouds.21 mph93%29.89 "HgN/A
4:50 PM41 °FRain showers. Passing clouds.33 mph87%29.89 "Hg4 mi
4:20 PM43 °FLight rain. Passing clouds.29 mph76%29.86 "HgN/A
3:50 PM43 °FPartly sunny.28 mph76%29.89 "HgN/A
3:20 PM43 °FLight rain. Partly sunny.28 mph76%29.89 "HgN/A
2:50 PM43 °FPartly sunny.29 mph76%29.89 "HgN/A
2:20 PM43 °FPartly sunny.30 mph76%29.89 "HgN/A
1:50 PM43 °FMore clouds than sun.30 mph76%29.89 "HgN/A
1:20 PM43 °FBroken clouds.28 mph76%29.92 "HgN/A
12:50 PM43 °FCloudy.28 mph71%29.95 "HgN/A
12:20 PM43 °FMore clouds than sun.28 mph71%29.95 "HgN/A
11:50 AM43 °FMostly cloudy.31 mph71%29.95 "HgN/A
11:20 AM43 °FPartly sunny.28 mph76%29.95 "HgN/A
10:50 AM43 °FBroken clouds.28 mph71%29.95 "HgN/A
10:20 AM43 °FBroken clouds.24 mph71%29.98 "HgN/A
9:50 AM43 °FPartly sunny.26 mph76%29.98 "HgN/A
9:20 AM43 °FPartly sunny.28 mph76%30.01 "HgN/A
8:50 AM43 °FPartly sunny.26 mph76%30.01 "HgN/A
8:20 AM43 °FBroken clouds.24 mph76%30.01 "HgN/A
7:50 AM43 °FPassing clouds.23 mph76%30.01 "HgN/A
7:20 AM43 °FPassing clouds.22 mph76%30.01 "HgN/A
6:50 AM43 °FPassing clouds.22 mph76%30.01 "HgN/A
6:20 AM43 °FPassing clouds.23 mph76%30.01 "HgN/A
5:50 AM41 °FPassing clouds.23 mph81%30.01 "HgN/A
5:20 AM43 °FPassing clouds.22 mph76%30.01 "HgN/A
4:50 AM43 °FPassing clouds.21 mph76%30.01 "HgN/A
4:20 AM43 °FClear.22 mph76%30.01 "Hg10 mi
3:50 AM43 °FClear.23 mph76%30.01 "Hg10 mi
3:20 AM43 °FClear.20 mph76%30.01 "Hg10 mi
2:50 AM41 °FClear.22 mph81%30.01 "Hg10 mi
2:20 AM41 °FClear.22 mph81%30.01 "Hg10 mi
1:50 AM41 °FClear.17 mph81%30.01 "Hg10 mi
1:20 AM41 °FClear.16 mph81%29.98 "Hg10 mi
12:50 AM41 °FClear.17 mph81%29.98 "Hg10 mi
12:20 AM41 °FClear.15 mph81%29.98 "Hg10 mi
11:50 PM
Dec 19
41 °FPassing clouds.16 mph81%29.98 "HgN/A
11:20 PM41 °FPassing clouds.16 mph81%29.98 "HgN/A
10:50 PM43 °FPassing clouds.15 mph81%29.95 "HgN/A
10:20 PM41 °FPassing clouds.13 mph87%29.95 "HgN/A
9:50 PM43 °FPassing clouds.13 mph81%29.95 "HgN/A
9:20 PM43 °FPassing clouds.14 mph87%29.92 "HgN/A
8:50 PM45 °FPassing clouds.6 mph81%29.92 "HgN/A
8:20 PM45 °FPassing clouds.9 mph81%29.89 "HgN/A
7:50 PM46 °FPartly cloudy.9 mph76%29.89 "HgN/A
7:20 PM46 °FPartly cloudy.12 mph82%29.86 "HgN/A
Weather by CustomWeather, © 2014

See weather overviewHow to use our weather pages